Lancaster, PA

10:53 PM EST on February 12, 2016 (GMT -0500)
Lancaster

Weather History for KLNS - December, 2011

Change the Weather History Date:

Sunday, December 4, 2011

  Actual Average Record
Temperature  
Mean Temperature 42 °F -  
Max Temperature 53 °F 48 °F 73 °F (1998)
Min Temperature 30 °F 30 °F 13 °F (1976)
Degree Days  
Heating Degree Days 24    
Moisture  
Dew Point 35 °F    
Average Humidity 86    
Maximum Humidity 100    
Minimum Humidity 54    
Precipitation  
Precipitation 0.00 in - - ()
Sea Level Pressure  
Sea Level Pressure 30.48 in    
Wind  
Wind Speed 3 mph (ESE)    
Max Wind Speed 14 mph    
Max Gust Speed 18 mph    
Visibility 6 miles    
Events      
Averages and records for this station are not official NWS values.
T = Trace of Precipitation, MM = Missing Value Source: NWS Daily Summary

Daily Weather History Graph

Daily Weather History Graph

Search for Another Location

Airport or City:

Trip Planner

Search our weather history database for the weather conditions in past years. The results will help you decide how hot, cold, wet, or windy it might be!

Date:

Astronomy

Dec. 04, 2011 Rise Set
Actual Time 7:10 AM EST 4:39 PM EST
Civil Twilight 6:40 AM EST 5:09 PM EST
Nautical Twilight 6:06 AM EST 5:43 PM EST
Astronomical Twilight 5:34 AM EST 6:16 PM EST
Moon 1:09 PM EST (12/4) 1:33 AM EST (12/4)
Length of Visible Light 10h 29m
Length of Day
9h 28m
Waxing Gibbous, 71% of the Moon is Illuminated
Dec 4
Waxing Gibbous
Dec 10
Full
Dec 17
Last Quarter
Dec 24
New
Jan 1
First Quarter

Hourly Weather History & Observations

Time (EST) Temp. Windchill Dew Point Humidity Pressure Visibility Wind Dir Wind Speed Gust Speed Precip Events Conditions
12:53 AM 33.1 °F 30.0 °F 30.0 °F 89% 30.57 in 6.0 mi NE 3.5 mph - N/A   Clear
1:53 AM 34.0 °F 31.0 °F 30.9 °F 89% 30.57 in 7.0 mi ENE 3.5 mph - N/A   Partly Cloudy
2:53 AM 32.0 °F - 30.0 °F 92% 30.56 in 5.0 mi Calm Calm - N/A   Clear
3:53 AM 34.0 °F 29.8 °F 32.0 °F 92% 30.55 in 4.0 mi East 4.6 mph - N/A   Clear
4:23 AM 32.0 °F 28.7 °F 30.2 °F 93% 30.53 in 2.5 mi ENE 3.5 mph - N/A   Clear
4:53 AM 32.0 °F 28.7 °F 30.9 °F 96% 30.54 in 2.0 mi East 3.5 mph - N/A   Clear
5:21 AM 33.8 °F - 30.2 °F 87% 30.52 in 1.8 mi Calm Calm - N/A   Clear
5:37 AM 32.0 °F - 30.2 °F 93% 30.53 in 0.8 mi Calm Calm - N/A   Clear
5:46 AM 32.0 °F - 32.0 °F 100% 30.53 in 1.8 mi Calm Calm - N/A   Clear
5:53 AM 33.1 °F - 32.0 °F 96% 30.54 in 3.0 mi Calm Calm - N/A   Clear
6:53 AM 30.9 °F 26.2 °F 30.0 °F 96% 30.53 in 3.0 mi East 4.6 mph - N/A   Clear
7:53 AM 30.9 °F - 30.0 °F 96% 30.54 in 3.0 mi Calm Calm - N/A   Clear
8:53 AM 36.0 °F - 34.0 °F 93% 30.54 in 3.0 mi Calm Calm - N/A   Clear
9:53 AM 41.0 °F 39.0 °F 37.0 °F 86% 30.54 in 5.0 mi ESE 3.5 mph - N/A   Clear
10:53 AM 46.0 °F - 39.0 °F 76% 30.52 in 8.0 mi Calm Calm - N/A   Clear
11:53 AM 50.0 °F - 39.0 °F 66% 30.48 in 10.0 mi South 13.8 mph 18.4 mph N/A   Clear
12:53 PM 51.1 °F - 39.0 °F 63% 30.44 in 10.0 mi SSE 11.5 mph - N/A   Clear
1:53 PM 53.1 °F - 39.0 °F 59% 30.43 in 10.0 mi South 6.9 mph - N/A   Clear
2:53 PM 52.0 °F - 37.9 °F 59% 30.40 in 10.0 mi South 9.2 mph - N/A   Clear
3:53 PM 52.0 °F - 36.0 °F 54% 30.40 in 10.0 mi South 9.2 mph - N/A   Clear
4:53 PM 48.9 °F - 39.9 °F 71% 30.41 in 10.0 mi South 6.9 mph - N/A   Clear
5:53 PM 46.9 °F - 39.9 °F 77% 30.40 in 10.0 mi ESE 4.6 mph - N/A   Clear
6:53 PM 45.0 °F - 41.0 °F 86% 30.41 in 10.0 mi Calm Calm - N/A   Clear
7:53 PM 42.1 °F 40.2 °F 39.9 °F 92% 30.40 in 5.0 mi ESE 3.5 mph - N/A   Clear
8:53 PM 41.0 °F 39.0 °F 39.0 °F 93% 30.41 in 6.0 mi East 3.5 mph - N/A   Clear
9:53 PM 39.0 °F - 37.9 °F 96% 30.41 in 5.0 mi Calm Calm - N/A   Clear
10:53 PM 39.9 °F 37.8 °F 39.0 °F 97% 30.40 in 3.0 mi East 3.5 mph - N/A   Clear
11:29 PM 39.2 °F - 39.2 °F 100% 30.39 in 2.5 mi Calm Calm - N/A   Clear
11:53 PM 39.0 °F 36.8 °F 37.9 °F 96% 30.40 in 2.0 mi East 3.5 mph - N/A   Clear